This is the latest recevied weather packets stored in our database for station/object N4ZIQ. If no packets are shown the sender has not sent any weather packets the latest 10 day(s).
| Time | Temp. | Humidity | Pressure | Rain* | Wind** | Luminosity | Snow |
|---|---|---|---|---|---|---|---|
| 1777944048 | 18.89° C | 81% | 1016.3 hPa | 0 mm | - | 0 W/m² | - |
| 1777943761 | 18.89° C | 80% | 1016.5 hPa | 0 mm | - | 0 W/m² | - |
| 1777943449 | 18.89° C | 80% | 1016.4 hPa | 0 mm | - | 0 W/m² | - |
| 1777943148 | 19.44° C | 79% | 1016.4 hPa | 0 mm | - | 0 W/m² | - |
| 1777942871 | 19.44° C | 79% | 1016.5 hPa | 0 mm | - | 0 W/m² | - |
| 1777942548 | 20° C | 78% | 1016.4 hPa | 0 mm | - | 0 W/m² | - |
| 1777942248 | 20° C | 78% | 1016.3 hPa | 0 mm | - | 0 W/m² | - |
| 1777941989 | 20° C | 77% | 1016.1 hPa | 0 mm | - | 0 W/m² | - |
| 1777941647 | 20° C | 77% | 1016 hPa | 0 mm | - | 0 W/m² | - |
| 1777941344 | 20.56° C | 76% | 1016 hPa | 0 mm | - | 0 W/m² | - |
| 1777941061 | 20.56° C | 75% | 1016 hPa | 0 mm | - | 0 W/m² | - |
| 1777940747 | 20.56° C | 75% | 1015.9 hPa | 0 mm | - | 0 W/m² | - |
| 1777940447 | 21.11° C | 75% | 1015.8 hPa | 0 mm | - | 0 W/m² | - |
| 1777940155 | 21.11° C | 74% | 1015.9 hPa | 0 mm | - | 0 W/m² | - |
| 1777939846 | 21.11° C | 74% | 1016 hPa | 0 mm | - | 0 W/m² | - |
| 1777939548 | 21.11° C | 74% | 1016 hPa | 0 mm | - | 0 W/m² | - |
| 1777939271 | 21.67° C | 72% | 1015.9 hPa | 0 mm | - | 0 W/m² | - |
| 1777938948 | 21.67° C | 72% | 1015.8 hPa | 0 mm | - | 7 W/m² | - |
| 1777938648 | 21.67° C | 71% | 1015.7 hPa | 0 mm | - | 11 W/m² | - |
| 1777938355 | 21.67° C | 70% | 1015.6 hPa | 0 mm | - | 14 W/m² | - |
| 1777938048 | 22.22° C | 69% | 1015.6 hPa | 0 mm | - | 18 W/m² | - |
| 1777937748 | 22.22° C | 68% | 1015.6 hPa | 0 mm | - | 21 W/m² | - |
| 1777937468 | 22.78° C | 68% | 1015.6 hPa | 0 mm | - | 25 W/m² | - |
| 1777937146 | 22.78° C | 67% | 1015.5 hPa | 0 mm | - | 42 W/m² | - |
| 1777936847 | 22.78° C | 67% | 1015.5 hPa | 0 mm | - | 54 W/m² | - |
* Rain latest hour (hover to see other rain measurements)
** Current wind speed in m/s (hover to see current wind gust speed)